Hourly Weather Cotiujenii Mari

Today, 20 June, Sunday

Time Temperature Precipitation Wind Pressure Humidity
00:00 +18°C° 0 mm 2 mps 741 mmHg 91%
01:00 +18°C° 0 mm 2 mps 740 mmHg 92%
02:00 +18°C° 0 mm 2 mps 740 mmHg 93%
03:00 +18°C° 2 mm 2 mps 740 mmHg 95%
04:00 +18°C° 2 mm 2 mps 739 mmHg 96%
05:00 +18°C° 2 mm 2 mps 739 mmHg 98%
06:00 +18°C° 1.3 mm 2 mps 739 mmHg 97%
07:00 +19°C° 1.3 mm 3 mps 739 mmHg 96%
08:00 +19°C° 1.3 mm 3 mps 739 mmHg 95%
09:00 +20°C° 0.4 mm 3 mps 739 mmHg 90%
10:00 +22°C° 0.4 mm 4 mps 739 mmHg 84%
11:00 +23°C° 0.4 mm 4 mps 739 mmHg 79%
12:00 +23°C° 0.6 mm 4 mps 739 mmHg 77%
13:00 +23°C° 0.6 mm 4 mps 739 mmHg 76%
14:00 +25°C° 0.6 mm 5 mps 739 mmHg 74%
15:00 +23°C° 0.2 mm 4 mps 739 mmHg 75%
16:00 +23°C° 0.2 mm 4 mps 739 mmHg 77%
17:00 +24°C° 0.2 mm 3 mps 738 mmHg 78%
18:00 +22°C° 0.1 mm 3 mps 738 mmHg 82%
19:00 +21°C° 0.1 mm 3 mps 738 mmHg 86%
20:00 +20°C° 0.1 mm 3 mps 738 mmHg 90%
21:00 +20°C° 0 mm 3 mps 738 mmHg 89%
22:00 +20°C° 0 mm 2 mps 738 mmHg 89%
23:00 +21°C° 0 mm 1 mps 738 mmHg 88%

Tomorrow, 21 June, Monday

Time Temperature Precipitation Wind Pressure Humidity
00:00 +20°C° 0 mm 1 mps 738 mmHg 90%
01:00 +20°C° 0 mm 1 mps 738 mmHg 91%
02:00 +19°C° 0 mm 1 mps 738 mmHg 93%
03:00 +19°C° 0 mm 1 mps 738 mmHg 94%
04:00 +19°C° 0 mm 1 mps 738 mmHg 94%
05:00 +19°C° 0 mm 1 mps 738 mmHg 95%
06:00 +19°C° 0 mm 2 mps 739 mmHg 92%
07:00 +21°C° 0 mm 2 mps 739 mmHg 89%
08:00 +22°C° 0 mm 3 mps 739 mmHg 85%
09:00 +24°C° 0 mm 3 mps 739 mmHg 79%
10:00 +26°C° 0 mm 3 mps 739 mmHg 73%
11:00 +27°C° 0 mm 3 mps 739 mmHg 67%
12:00 +28°C° 0 mm 3 mps 739 mmHg 63%
13:00 +28°C° 0 mm 3 mps 739 mmHg 60%
14:00 +29°C° 0 mm 3 mps 739 mmHg 56%
15:00 +29°C° 0 mm 3 mps 739 mmHg 58%
16:00 +28°C° 0 mm 3 mps 739 mmHg 61%
17:00 +28°C° 0 mm 2 mps 738 mmHg 63%
18:00 +27°C° 0 mm 2 mps 739 mmHg 67%
19:00 +25°C° 0 mm 2 mps 739 mmHg 70%
20:00 +24°C° 0 mm 1 mps 739 mmHg 74%
21:00 +24°C° 0 mm 1 mps 739 mmHg 74%
22:00 +23°C° 0 mm 1 mps 739 mmHg 75%
23:00 +23°C° 0 mm 1 mps 739 mmHg 76%

Day after tomorrow, 22 June, Tuesday

Time Temperature Precipitation Wind Pressure Humidity
00:00 +22°C° 0 mm 1 mps 739 mmHg 77%
01:00 +22°C° 0 mm 1 mps 739 mmHg 79%
02:00 +21°C° 0 mm 1 mps 739 mmHg 81%
03:00 +21°C° 0 mm 1 mps 739 mmHg 82%
04:00 +21°C° 0 mm 1 mps 739 mmHg 83%
05:00 +21°C° 0 mm 1 mps 739 mmHg 84%
06:00 +23°C° 0 mm 2 mps 739 mmHg 80%
07:00 +25°C° 0 mm 2 mps 739 mmHg 76%
08:00 +26°C° 0 mm 3 mps 739 mmHg 72%
09:00 +27°C° 0 mm 3 mps 739 mmHg 69%
10:00 +29°C° 0 mm 3 mps 739 mmHg 65%
11:00 +30°C° 0 mm 3 mps 739 mmHg 61%
12:00 +30°C° 0.8 mm 3 mps 739 mmHg 60%
13:00 +30°C° 0.8 mm 3 mps 739 mmHg 59%
14:00 +30°C° 0.8 mm 3 mps 739 mmHg 59%
15:00 +30°C° 0.6 mm 3 mps 739 mmHg 62%
16:00 +29°C° 0.6 mm 2 mps 739 mmHg 65%
17:00 +29°C° 0.6 mm 2 mps 739 mmHg 68%
18:00 +28°C° 0.6 mm 2 mps 739 mmHg 72%
19:00 +26°C° 0.6 mm 2 mps 739 mmHg 76%
20:00 +25°C° 0.6 mm 2 mps 739 mmHg 80%
21:00 +25°C° 0 mm 1 mps 739 mmHg 82%
22:00 +24°C° 0 mm 1 mps 739 mmHg 84%
23:00 +24°C° 0 mm 1 mps 739 mmHg 86%

23 June, Wednesday

Time Temperature Precipitation Wind Pressure Humidity
00:00 +23°C° 0.3 mm 1 mps 739 mmHg 88%
01:00 +23°C° 0.3 mm 2 mps 739 mmHg 90%
02:00 +21°C° 0.3 mm 2 mps 739 mmHg 92%
03:00 +21°C° 0.2 mm 2 mps 739 mmHg 91%
04:00 +22°C° 0.2 mm 1 mps 739 mmHg 90%
05:00 +22°C° 0.2 mm 1 mps 739 mmHg 88%
06:00 +23°C° 0 mm 1 mps 739 mmHg 85%
07:00 +24°C° 0 mm 2 mps 740 mmHg 81%
08:00 +25°C° 0 mm 2 mps 740 mmHg 77%
09:00 +27°C° 0 mm 2 mps 740 mmHg 73%
10:00 +28°C° 0 mm 2 mps 740 mmHg 69%
11:00 +29°C° 0 mm 1 mps 740 mmHg 65%
12:00 +30°C° 0 mm 1 mps 740 mmHg 62%
13:00 +31°C° 0 mm 1 mps 740 mmHg 59%
14:00 +31°C° 0 mm 1 mps 740 mmHg 56%
15:00 +31°C° 0.4 mm 2 mps 741 mmHg 59%
16:00 +31°C° 0.4 mm 2 mps 741 mmHg 61%
17:00 +31°C° 0.4 mm 2 mps 741 mmHg 63%
18:00 +29°C° 0.5 mm 2 mps 741 mmHg 67%
19:00 +28°C° 0.5 mm 2 mps 741 mmHg 72%
20:00 +26°C° 0.5 mm 1 mps 741 mmHg 77%
21:00 +25°C° 0.2 mm 1 mps 741 mmHg 79%
22:00 +24°C° 0.2 mm 1 mps 741 mmHg 81%
23:00 +24°C° 0.2 mm 1 mps 741 mmHg 83%

24 June, Thursday

Time Temperature Precipitation Wind Pressure Humidity
00:00 +23°C° 0.4 mm 1 mps 741 mmHg 84%
01:00 +23°C° 0.4 mm 1 mps 742 mmHg 85%
02:00 +21°C° 0.4 mm 0 mps 742 mmHg 86%
03:00 +21°C° 0.2 mm 0 mps 742 mmHg 86%
04:00 +21°C° 0.2 mm 0 mps 742 mmHg 87%
05:00 +23°C° 0.2 mm 1 mps 742 mmHg 87%
06:00 +24°C° 0 mm 1 mps 742 mmHg 84%
07:00 +26°C° 0 mm 1 mps 742 mmHg 80%
08:00 +27°C° 0 mm 1 mps 742 mmHg 77%
09:00 +28°C° 0.1 mm 1 mps 742 mmHg 72%
10:00 +29°C° 0.1 mm 1 mps 743 mmHg 67%
11:00 +30°C° 0.1 mm 1 mps 743 mmHg 63%
12:00 +31°C° 0 mm 1 mps 743 mmHg 59%
13:00 +32°C° 0 mm 1 mps 743 mmHg 55%
14:00 +32°C° 0 mm 1 mps 742 mmHg 51%
15:00 +32°C° 0 mm 1 mps 742 mmHg 53%
16:00 +32°C° 0 mm 2 mps 742 mmHg 56%
17:00 +31°C° 0 mm 2 mps 742 mmHg 58%
18:00 +30°C° 0.1 mm 2 mps 742 mmHg 63%
19:00 +28°C° 0.1 mm 2 mps 742 mmHg 68%
20:00 +27°C° 0.1 mm 2 mps 742 mmHg 73%
21:00 +26°C° 0 mm 1 mps 742 mmHg 74%
22:00 +26°C° 0 mm 1 mps 742 mmHg 75%
23:00 +25°C° 0 mm 1 mps 742 mmHg 76%

25 June, Friday

Time Temperature Precipitation Wind Pressure Humidity
00:00 +25°C° 0 mm 1 mps 742 mmHg 78%
01:00 +24°C° 0 mm 1 mps 742 mmHg 80%
02:00 +24°C° 0 mm 1 mps 742 mmHg 82%
03:00 +24°C° 0 mm 1 mps 741 mmHg 83%
04:00 +24°C° 0 mm 1 mps 741 mmHg 84%
05:00 +23°C° 0 mm 1 mps 741 mmHg 84%
06:00 +25°C° 0 mm 1 mps 742 mmHg 80%
07:00 +26°C° 0 mm 2 mps 742 mmHg 76%
08:00 +27°C° 0 mm 2 mps 742 mmHg 72%
09:00 +29°C° 0 mm 2 mps 742 mmHg 68%
10:00 +30°C° 0 mm 2 mps 742 mmHg 64%
11:00 +31°C° 0 mm 2 mps 742 mmHg 59%
12:00 +31°C° 0 mm 2 mps 742 mmHg 56%
13:00 +32°C° 0 mm 2 mps 742 mmHg 53%
14:00 +32°C° 0 mm 1 mps 741 mmHg 50%
15:00 +32°C° 0 mm 2 mps 741 mmHg 51%
16:00 +32°C° 0 mm 2 mps 741 mmHg 53%
17:00 +32°C° 0 mm 2 mps 741 mmHg 54%
18:00 +30°C° 0 mm 2 mps 741 mmHg 58%
19:00 +29°C° 0 mm 1 mps 741 mmHg 62%
20:00 +27°C° 0 mm 1 mps 740 mmHg 66%
21:00 +26°C° 0.3 mm 1 mps 740 mmHg 68%
22:00 +25°C° 0.3 mm 1 mps 740 mmHg 70%
23:00 +25°C° 0.3 mm 1 mps 740 mmHg 72%
Show more